Flag for Germany Weather past 2 weeks in Hameln, Lower Saxony, Germany

Now
46 °F

Cool.


Feels Like: 41 °F
Forecast: 35 / 47 °F
Wind: 12 mph from Southwest

Location: Bueckeburg

Current Time: Feb 28, 2015 at 5:29:15 PM

Latest Report: Feb 28, 2015 at 4:20 PM


Visibility: N/A

Pressure: 29.98 "Hg

Humidity: 46%

Dew point: 27 °F

Location of HamelnLocation

Historic Weather in Hameln — Graph

°F

Hameln temperature yesterday

Maximum temperature yesterday: 45 °F (at 12:20 AM)
Minimum temperature yesterday: 34 °F (at 11:20 PM)
Average temperature yesterday: 40 °F

Past Weeks' High & Low Weather Summary

 TemperatureHumidityPressure
High52 °F (Feb 14, 3:20 PM)100% (Feb 15, 3:20 AM)30.74 "Hg (Feb 15, 3:20 AM)
Low27 °F (Feb 16, 7:20 AM)46% (Feb 28, 3:20 PM)29.30 "Hg (Feb 21, 6:20 AM)
Average39 °F80%29.97 "Hg
* Reported Feb 13 3:20 PM — Feb 28 3:20 PM, Hameln, Weather by CustomWeather, © 2015

Note: Actual official high and low records may vary slightly from our data, if they occured in-between our weather recording intervals... More about our weather records

Advertising

Hameln weather history for previous 24 hours

 ConditionsComfort  
Time TempWeatherWind HumidityBarometerVisibility
3:20 PM
Sat, Feb 28
45 °FQuite cool.14 mph46%30.01 "HgN/A
2:20 PM45 °FQuite cool.10 mph49%30.04 "Hg6 mi
1:20 PM43 °FQuite cool.12 mph61%30.07 "Hg6 mi
12:20 PM41 °FQuite cool.10 mph66%30.07 "Hg6 mi
11:20 AM39 °FChilly.10 mph75%30.09 "Hg3 mi
10:20 AM36 °FChilly.7 mph87%30.12 "Hg3 mi
9:20 AM34 °FChilly.7 mph93%30.12 "Hg3 mi
8:20 AM34 °FChilly.6 mph87%30.12 "Hg3 mi
7:20 AM32 °FChilly.7 mph93%30.12 "Hg4 mi
6:20 AM32 °FChilly.7 mph93%30.09 "Hg4 mi
5:20 AM30 °FChilly.6 mph100%30.12 "Hg5 mi
4:20 AM30 °FChilly.2 mph93%30.12 "Hg4 mi
3:20 AM32 °FChilly.3 mph93%30.12 "Hg5 mi
2:20 AM34 °FChilly.3 mph93%30.12 "Hg5 mi
1:20 AMN/A3 mphN/AN/A5 mi
12:20 AM32 °FChilly.3 mph93%30.12 "Hg5 mi
11:20 PM
Fri, Feb 27
34 °FChilly.3 mph87%30.09 "Hg6 mi
10:20 PM36 °FChilly.5 mph87%30.09 "Hg6 mi
9:20 PM37 °FChilly.6 mph81%30.09 "Hg6 mi
8:20 PM39 °FChilly.6 mph81%30.07 "Hg6 mi
7:20 PM37 °FPartly cloudy.1 mph93%30.04 "HgN/A
6:20 PM39 °FPassing clouds.2 mph87%30.01 "HgN/A
5:20 PM41 °FBroken clouds.7 mph81%30.01 "HgN/A
Weather by CustomWeather, © 2015

See weather overviewHow to use our weather pages